Location: Wapato
(46.4478°N, 120.4212°W)
Time: 14:02:17
(UTC+00:00)

Explorer 7 - Pass Details

Date: 10 May 2026
Orbit: 426 x 534 km, 50.2° (Epoch: 8 June)

Event Time Altitude Azimuth Distance (km) Brightness Sun altitude
Rises 16:34:23 0° 262° (W) 2,515 9.8 39.4°
Reaches altitude 10° 16:36:32 10° 266° (W) 1,658 8.9 39.7°
Maximum altitude 16:40:15 58° 346° (NNW) 582 7.3 40.3°
Drops below altitude 10° 16:44:07 10° 67° (ENE) 1,728 10.1 41.0°
Sets 16:46:24 0° 71° (ENE) 2,633 10.9 41.4°
